Flag for USA

Past Weather in Bozeman, Montana, USA — Yesterday and Last 2 Weeks

Now
55 °F

Mostly cloudy.


Feels Like: 52 °F
Forecast: 57 / 43 °F
Wind: 13 mph from Southwest

Location: Gallatin Field
Current Time: Sep 26, 2020 at 3:41:58 am
Latest Report: Sep 26, 2020 at 2:56 am
Visibility: 10 mi
Pressure29.76 "Hg(24.97 "Hg at 1469m altitude)
Humidity: 55%
Dew Point: 39 °F
Location of BozemanLocation

Past Weather in Bozeman — Graph

°F

Bozeman Temperature Yesterday

Maximum temperature yesterday: 58 °F (at 6:56 pm)
Minimum temperature yesterday: 36 °F (at 6:56 am)
Average temperature yesterday: 48 °F

High & Low Weather Summary for the Past Weeks

 TemperatureHumidityPressure
High89 °F (Sep 14, 3:56 pm)90% (Sep 21, 7:56 am)30.30 "Hg (Sep 21, 7:56 am)
Low36 °F (Sep 25, 6:56 am)10% (Sep 14, 2:56 pm)29.67 "Hg (Sep 24, 11:56 am)
Average58 °F52%30.02 "Hg
* Reported Sep 11 1:56 am — Sep 26 1:56 am, Bozeman. Weather by CustomWeather, © 2020

Note: Actual official high and low records may vary slightly from our data, if they occured in-between our weather recording intervals... More about our weather records

Bozeman Weather History for the Previous 24 Hours

Scroll right to see more
 ConditionsComfort  
Time TempWeatherWind HumidityBarometerVisibility
1:56 am
Sat, Sep 26
56 °FOvercast.13 mph53%29.75 "Hg10 mi
12:56 am57 °FOvercast.14 mph51%29.76 "Hg10 mi
11:56 pm
Fri, Sep 25
52 °FOvercast.No wind69%29.80 "Hg10 mi
10:56 pm52 °FOvercast.6 mph72%29.82 "Hg10 mi
9:56 pm54 °FMostly cloudy.6 mph62%29.83 "Hg10 mi
8:56 pm51 °FPassing clouds.5 mph80%29.86 "Hg10 mi
7:56 pm51 °FPassing clouds.3 mph80%29.86 "Hg10 mi
6:56 pm58 °FOvercast.10 mph51%29.84 "Hg10 mi
5:56 pm52 °FMore clouds than sun.9 mph77%29.83 "Hg10 mi
4:56 pm54 °FLight rain. Overcast.No wind64%29.83 "Hg8 mi
3:56 pm57 °FOvercast.9 mph47%29.80 "Hg10 mi
2:56 pm54 °FMostly cloudy.5 mph55%29.83 "Hg10 mi
1:56 pm53 °FOvercast.5 mph55%29.86 "Hg10 mi
12:56 pm53 °FPartly sunny.3 mph55%29.88 "Hg10 mi
11:56 am52 °FPassing clouds.No wind50%29.91 "Hg10 mi
10:56 am48 °FPassing clouds.No wind68%29.96 "Hg10 mi
9:56 am45 °FSunny.No wind71%29.98 "Hg10 mi
8:56 am43 °FSunny.5 mph71%29.98 "Hg10 mi
7:56 am40 °FSunny.8 mph77%30.00 "Hg10 mi
6:56 am36 °FClear.6 mph82%30.00 "Hg10 mi
5:56 am39 °FClear.No wind76%29.98 "Hg10 mi
4:56 am41 °FClear.8 mph76%29.96 "Hg10 mi
3:56 am42 °FClear.3 mph73%29.96 "Hg10 mi
Weather by CustomWeather, © 2020

See weather overview